Tracking 35280 objects as of 7-Sep-2026
HD Live streaming from Space Station
objects crossing your sky now

KUIPER-00198

Track KUIPER-00198 now!
10-day predictions
KUIPER-00198 is classified as:


NORAD ID: 67770
Int'l Code: 2026-030G
Launch date: February 12, 2026
Source: France (FR)
Launch site: FRENCH GUIANA (FRGUI)
Your satellite tracking list
Your tracking list is empty




NASA's NSSDC Master Catalog

Two Line Element Set (TLE):
1 67770U 26030G   26250.35435008  .00002047  00000-0  29743-3 0  9992
2 67770  51.8977 117.2731 0000989 102.0798 258.0275 14.79932433 32257
Source of the keplerian elements: AFSPC